Flag for U.S.A. Weather past 2 weeks in Hollywood, California, U.S.A.

Now
55 °F

Mostly cloudy.


Feels Like: 54 °F
Forecast: 51 / 62 °F
Wind: 5 mph from South

Location: Burbank-Glendale-Pasadena Airport

Current Time: Feb 28, 2015 at 9:47:09 AM

Latest Report: Feb 28, 2015 at 8:53 AM


Visibility: 10 mi

Pressure: 29.80 "Hg

Humidity: 64%

Dew point: 43 °F

Location of HollywoodLocation

Historic Weather in Hollywood — Graph

°F

Hollywood temperature yesterday

Maximum temperature yesterday: 62 °F (at 1:53 PM)
Minimum temperature yesterday: 53 °F (at 4:53 AM)
Average temperature yesterday: 57 °F

Past Weeks' High & Low Weather Summary

 TemperatureHumidityPressure
High86 °F (Feb 13, 1:53 PM)100% (Feb 18, 6:55 AM)30.21 "Hg (Feb 18, 6:55 AM)
Low43 °F (Feb 24, 3:53 AM)8% (Feb 13, 12:53 PM)29.71 "Hg (Feb 27, 11:53 PM)
Average60 °F60%29.96 "Hg
* Reported Feb 13 7:53 AM — Feb 28 7:53 AM, Hollywood, Weather by CustomWeather, © 2015

Note: Actual official high and low records may vary slightly from our data, if they occured in-between our weather recording intervals... More about our weather records

Advertising

Hollywood weather history for previous 24 hours

 ConditionsComfort  
Time TempWeatherWind HumidityBarometerVisibility
7:53 AM
Sat, Feb 28
54 °FPartly sunny.No wind62%29.80 "Hg10 mi
6:53 AM53 °FOvercast.No wind66%29.76 "Hg10 mi
5:53 AM53 °FOvercast.3 mph66%29.75 "Hg10 mi
4:53 AM54 °FOvercast.6 mph69%29.73 "Hg10 mi
3:53 AM54 °FOvercast.6 mph72%29.72 "Hg10 mi
2:53 AM55 °FMostly cloudy.5 mph74%29.72 "Hg10 mi
1:53 AM56 °FOvercast.3 mph77%29.72 "Hg10 mi
1:03 AM55 °FMostly cloudy.9 mph77%29.74 "Hg10 mi
12:53 AM56 °FOvercast.7 mph77%29.72 "Hg10 mi
11:53 PM
Fri, Feb 27
56 °FMostly cloudy.13 mph77%29.71 "Hg10 mi
10:53 PM57 °FPassing clouds.7 mph78%29.72 "Hg10 mi
9:53 PM58 °FPassing clouds.7 mph75%29.72 "Hg10 mi
8:53 PM58 °FMostly cloudy.7 mph78%29.72 "Hg10 mi
7:53 PM58 °FPassing clouds.8 mph78%29.72 "Hg10 mi
6:53 PM59 °FOvercast.5 mph69%29.72 "Hg10 mi
5:53 PM59 °FOvercast.6 mph69%29.72 "Hg10 mi
4:53 PM60 °FOvercast.6 mph69%29.72 "Hg10 mi
3:53 PM61 °FCloudy.9 mph67%29.73 "Hg10 mi
2:53 PM62 °FCloudy.10 mph62%29.73 "Hg10 mi
1:53 PM62 °FMostly cloudy.8 mph60%29.75 "Hg10 mi
12:53 PM61 °FMostly cloudy.3 mph62%29.77 "Hg10 mi
11:53 AM61 °FOvercast.6 mph60%29.80 "Hg10 mi
11:00 AM61 °FOvercast.3 mph59%29.84 "Hg10 mi
9:53 AM58 °FOvercast.6 mph72%29.83 "Hg10 mi
Weather by CustomWeather, © 2015

See weather overviewHow to use our weather pages